Time,TemperatureF,DewpointF,PressureIn,WindDirection,WindDirectionDegrees,WindSpeedMPH,WindSpeedGustMPH,Humidity,HourlyPrecipIn,Conditions,Clouds,dailyrainin,SolarRadiationWatts/m^2,SoftwareType,DateUTC
2013-07-12 00:00:00,81.9,77.0,29.89,SSW,209,12.0,20.0,84,0.00,,,0.00,0,weatherlink.com 1.10,2013-07-12 04:00:00,
2013-07-12 00:15:00,81.8,77.0,29.90,SSW,195,6.0,19.0,84,0.00,,,0.00,0,weatherlink.com 1.10,2013-07-12 04:15:00,
2013-07-12 00:30:00,81.6,76.0,29.90,SSW,199,6.0,16.0,84,0.00,,,0.00,0,weatherlink.com 1.10,2013-07-12 04:30:00,
2013-07-12 00:45:00,81.4,76.0,29.89,South,184,8.0,13.0,84,0.00,,,0.00,0,weatherlink.com 1.10,2013-07-12 04:45:00,
2013-07-12 01:00:00,81.5,77.0,29.89,SW,234,9.0,14.0,85,0.00,,,0.00,0,weatherlink.com 1.10,2013-07-12 05:00:00,
2013-07-12 01:15:00,81.4,76.0,29.89,SW,215,5.0,14.0,83,0.00,,,0.00,0,weatherlink.com 1.10,2013-07-12 05:15:00,
2013-07-12 01:30:00,81.4,75.0,29.89,SW,214,13.0,16.0,82,0.00,,,0.00,0,weatherlink.com 1.10,2013-07-12 05:30:00,
2013-07-12 01:45:00,81.0,75.0,29.89,West,270,5.0,10.0,83,0.00,,,0.00,0,weatherlink.com 1.10,2013-07-12 05:45:00,
2013-07-12 02:00:00,79.9,75.0,29.88,WNW,287,3.0,6.0,84,0.00,,,0.00,0,weatherlink.com 1.10,2013-07-12 06:00:00,
2013-07-12 02:15:00,79.1,74.0,29.88,NW,314,4.0,6.0,85,0.00,,,0.00,0,weatherlink.com 1.10,2013-07-12 06:15:00,
2013-07-12 02:30:00,78.7,74.0,29.87,NW,318,1.0,2.0,85,0.00,,,0.00,0,weatherlink.com 1.10,2013-07-12 06:30:00,
2013-07-12 02:45:00,77.7,73.0,29.87,NNW,345,1.0,5.0,86,0.00,,,0.00,0,weatherlink.com 1.10,2013-07-12 06:45:00,
2013-07-12 03:00:00,77.3,74.0,29.86,NNW,338,1.0,4.0,88,0.00,,,0.00,0,weatherlink.com 1.10,2013-07-12 07:00:00,
2013-07-12 03:15:00,76.7,73.0,29.86,NNW,333,2.0,5.0,89,0.00,,,0.00,0,weatherlink.com 1.10,2013-07-12 07:15:00,
2013-07-12 03:30:00,76.3,73.0,29.86,NNW,327,3.0,6.0,90,0.00,,,0.00,0,weatherlink.com 1.10,2013-07-12 07:30:00,
2013-07-12 03:45:00,76.1,73.0,29.85,NNW,343,2.0,4.0,90,0.00,,,0.00,0,weatherlink.com 1.10,2013-07-12 07:45:00,
2013-07-12 04:00:00,75.8,73.0,29.85,North,350,3.0,4.0,91,0.00,,,0.00,0,weatherlink.com 1.10,2013-07-12 08:00:00,
2013-07-12 04:15:00,75.5,73.0,29.85,North,357,2.0,5.0,91,0.00,,,0.00,0,weatherlink.com 1.10,2013-07-12 08:15:00,
2013-07-12 04:30:00,75.4,73.0,29.85,North,356,2.0,5.0,91,0.00,,,0.00,0,weatherlink.com 1.10,2013-07-12 08:30:00,
2013-07-12 04:45:00,75.4,73.0,29.85,North,356,3.0,3.0,91,0.00,,,0.00,0,weatherlink.com 1.10,2013-07-12 08:45:00,
2013-07-12 05:00:00,75.4,73.0,29.85,North,356,0.0,0.0,91,0.00,,,0.00,0,weatherlink.com 1.10,2013-07-12 09:00:00,
2013-07-12 05:15:00,75.3,73.0,29.85,North,356,0.0,0.0,92,0.00,,,0.00,0,weatherlink.com 1.10,2013-07-12 09:15:00,
2013-07-12 05:30:00,75.2,73.0,29.86,North,356,0.0,0.0,92,0.00,,,0.00,0,weatherlink.com 1.10,2013-07-12 09:30:00,
2013-07-12 05:45:00,75.1,73.0,29.86,North,356,0.0,0.0,92,0.00,,,0.00,0,weatherlink.com 1.10,2013-07-12 09:45:00,
2013-07-12 06:01:00,75.5,73.0,29.87,North,356,0.0,0.0,93,0.00,,,0.00,0,weatherlink.com 1.10,2013-07-12 10:01:00,
2013-07-12 06:16:00,75.3,73.0,29.86,North,356,0.0,0.0,92,0.00,,,0.00,0,weatherlink.com 1.10,2013-07-12 10:16:00,
2013-07-12 06:31:00,75.3,73.0,29.87,North,356,0.0,0.0,92,0.00,,,0.00,0,weatherlink.com 1.10,2013-07-12 10:31:00,
2013-07-12 06:46:00,75.3,73.0,29.87,North,356,0.0,0.0,93,0.00,,,0.00,9,weatherlink.com 1.10,2013-07-12 10:46:00,
2013-07-12 07:01:00,75.4,73.0,29.87,North,356,0.0,0.0,93,0.00,,,0.00,11,weatherlink.com 1.10,2013-07-12 11:01:00,
2013-07-12 07:16:00,75.5,73.0,29.88,North,356,0.0,0.0,93,0.00,,,0.00,16,weatherlink.com 1.10,2013-07-12 11:16:00,
2013-07-12 07:31:00,75.6,74.0,29.88,North,354,0.0,0.0,93,0.00,,,0.00,37,weatherlink.com 1.10,2013-07-12 11:31:00,
2013-07-12 07:46:00,75.6,73.0,29.87,North,355,1.0,2.0,92,0.00,,,0.00,39,weatherlink.com 1.10,2013-07-12 11:46:00,
2013-07-12 08:01:00,75.5,73.0,29.88,North,355,0.0,0.0,92,0.00,,,0.00,32,weatherlink.com 1.10,2013-07-12 12:01:00,
2013-07-12 08:16:00,75.7,74.0,29.88,North,355,0.0,0.0,93,0.00,,,0.00,32,weatherlink.com 1.10,2013-07-12 12:16:00,
2013-07-12 08:31:00,75.9,74.0,29.89,ESE,116,2.0,3.0,93,0.00,,,0.00,19,weatherlink.com 1.10,2013-07-12 12:31:00,
2013-07-12 08:46:00,76.1,74.0,29.89,SE,140,2.0,3.0,93,0.01,,,0.01,16,weatherlink.com 1.10,2013-07-12 12:46:00,
2013-07-12 09:01:00,76.1,74.0,29.89,SE,124,0.0,2.0,93,0.01,,,0.01,21,weatherlink.com 1.10,2013-07-12 13:01:00,
2013-07-12 09:16:00,76.4,75.0,29.90,South,178,1.0,3.0,94,0.01,,,0.01,33,weatherlink.com 1.10,2013-07-12 13:16:00,
2013-07-12 09:31:00,76.8,75.0,29.90,South,191,4.0,8.0,93,0.01,,,0.01,69,weatherlink.com 1.10,2013-07-12 13:31:00,
2013-07-12 09:46:00,77.3,75.0,29.90,SW,229,1.0,4.0,93,0.00,,,0.01,91,weatherlink.com 1.10,2013-07-12 13:46:00,
2013-07-12 10:01:00,77.6,76.0,29.91,SW,225,1.0,3.0,93,0.01,,,0.02,72,weatherlink.com 1.10,2013-07-12 14:01:00,
2013-07-12 10:16:00,77.7,76.0,29.90,South,176,7.0,10.0,93,0.02,,,0.03,97,weatherlink.com 1.10,2013-07-12 14:16:00,
2013-07-12 10:31:00,77.4,75.0,29.89,SSW,193,3.0,9.0,93,0.03,,,0.01,162,weatherlink.com 1.10,2013-07-12 14:31:00,
2013-07-12 10:46:00,77.8,76.0,29.89,SSE,157,4.0,7.0,93,0.03,,,0.01,146,weatherlink.com 1.10,2013-07-12 14:46:00,
2013-07-12 11:01:00,77.9,76.0,29.89,SSW,208,2.0,4.0,93,0.03,,,0.02,113,weatherlink.com 1.10,2013-07-12 15:01:00,
2013-07-12 11:16:00,77.9,76.0,29.91,South,189,4.0,6.0,93,0.02,,,0.02,156,weatherlink.com 1.10,2013-07-12 15:16:00,
2013-07-12 11:31:00,78.2,76.0,29.91,South,184,1.0,6.0,92,0.01,,,0.02,209,weatherlink.com 1.10,2013-07-12 15:31:00,
2013-07-12 12:01:00,78.0,76.0,29.91,SW,216,0.0,2.0,92,0.00,,,0.02,23,weatherlink.com 1.10,2013-07-12 16:01:00,
2013-07-12 12:16:00,78.0,76.0,29.91,SSW,211,2.0,4.0,93,0.00,,,0.02,65,weatherlink.com 1.10,2013-07-12 16:16:00,
2013-07-12 12:31:00,77.9,76.0,29.90,SW,218,3.0,4.0,93,0.02,,,0.04,86,weatherlink.com 1.10,2013-07-12 16:31:00,
2013-07-12 12:46:00,77.7,76.0,29.90,SSW,193,1.0,3.0,93,0.03,,,0.05,125,weatherlink.com 1.10,2013-07-12 16:46:00,
2013-07-12 13:01:00,77.9,76.0,29.90,South,191,4.0,6.0,94,0.05,,,0.07,54,weatherlink.com 1.10,2013-07-12 17:01:00,
2013-07-12 13:16:00,77.1,75.0,29.90,SW,222,6.0,10.0,94,0.05,,,0.07,100,weatherlink.com 1.10,2013-07-12 17:16:00,
2013-07-12 13:31:00,75.2,73.0,29.90,SSW,197,4.0,9.0,94,0.10,,,0.14,223,weatherlink.com 1.10,2013-07-12 17:31:00,
2013-07-12 13:46:00,75.8,74.0,29.90,South,187,0.0,8.0,94,0.10,,,0.15,258,weatherlink.com 1.10,2013-07-12 17:46:00,
2013-07-12 14:01:00,77.1,75.0,29.90,South,186,0.0,0.0,94,0.08,,,0.15,230,weatherlink.com 1.10,2013-07-12 18:01:00,
2013-07-12 14:16:00,77.7,76.0,29.89,ESE,120,0.0,0.0,95,0.08,,,0.15,185,weatherlink.com 1.10,2013-07-12 18:16:00,
2013-07-12 14:31:00,77.0,75.0,29.89,SE,136,0.0,8.0,94,0.01,,,0.15,199,weatherlink.com 1.10,2013-07-12 18:31:00,
2013-07-12 15:01:00,77.3,75.0,29.90,SSE,154,2.0,5.0,92,0.00,,,0.15,376,weatherlink.com 1.10,2013-07-12 19:01:00,
2013-07-12 15:16:00,77.8,75.0,29.89,SSE,157,2.0,6.0,91,0.00,,,0.15,345,weatherlink.com 1.10,2013-07-12 19:16:00,
2013-07-12 15:31:00,78.1,75.0,29.89,SSE,168,4.0,5.0,91,0.00,,,0.15,290,weatherlink.com 1.10,2013-07-12 19:31:00,
2013-07-12 16:01:00,79.2,76.0,29.89,ESE,120,1.0,4.0,90,0.01,,,0.16,294,weatherlink.com 1.10,2013-07-12 20:01:00,
2013-07-12 16:31:00,79.5,76.0,29.88,South,169,0.0,7.0,90,0.01,,,0.16,200,weatherlink.com 1.10,2013-07-12 20:31:00,
2013-07-12 17:02:00,78.9,76.0,29.88,NW,313,0.0,3.0,89,0.00,,,0.16,118,weatherlink.com 1.10,2013-07-12 21:02:00,
2013-07-12 17:17:00,78.8,76.0,29.88,NNW,338,0.0,2.0,90,0.00,,,0.16,84,weatherlink.com 1.10,2013-07-12 21:17:00,
2013-07-12 17:47:00,79.1,76.0,29.88,NNW,347,0.0,1.0,90,0.00,,,0.16,81,weatherlink.com 1.10,2013-07-12 21:47:00,
2013-07-12 18:02:00,79.0,76.0,29.88,NNW,339,0.0,1.0,90,0.00,,,0.16,39,weatherlink.com 1.10,2013-07-12 22:02:00,
2013-07-12 18:17:00,78.7,76.0,29.88,SE,133,2.0,5.0,90,0.00,,,0.16,76,weatherlink.com 1.10,2013-07-12 22:17:00,
2013-07-12 18:32:00,78.7,76.0,29.88,SSE,156,4.0,5.0,90,0.00,,,0.16,109,weatherlink.com 1.10,2013-07-12 22:32:00,
2013-07-12 18:47:00,78.7,75.0,29.88,SE,143,4.0,7.0,89,0.00,,,0.16,83,weatherlink.com 1.10,2013-07-12 22:47:00,
2013-07-12 19:02:00,78.6,75.0,29.88,SE,139,4.0,6.0,89,0.00,,,0.16,76,weatherlink.com 1.10,2013-07-12 23:02:00,
2013-07-12 19:17:00,78.6,75.0,29.88,SE,128,1.0,6.0,89,0.00,,,0.16,79,weatherlink.com 1.10,2013-07-12 23:17:00,
2013-07-12 19:32:00,78.8,75.0,29.89,ESE,118,1.0,4.0,89,0.00,,,0.16,70,weatherlink.com 1.10,2013-07-12 23:32:00,
2013-07-12 19:47:00,78.7,75.0,29.90,SE,130,3.0,5.0,88,0.00,,,0.16,47,weatherlink.com 1.10,2013-07-12 23:47:00,
2013-07-12 20:02:00,78.7,75.0,29.90,SE,141,0.0,3.0,88,0.00,,,0.16,56,weatherlink.com 1.10,2013-07-13 00:02:00,
2013-07-12 20:17:00,78.5,75.0,29.90,SE,141,0.0,0.0,88,0.00,,,0.16,14,weatherlink.com 1.10,2013-07-13 00:17:00,
2013-07-12 20:32:00,78.2,75.0,29.90,SE,129,3.0,6.0,89,0.00,,,0.16,0,weatherlink.com 1.10,2013-07-13 00:32:00,
2013-07-12 20:47:00,78.1,75.0,29.90,SE,133,5.0,5.0,89,0.00,,,0.16,0,weatherlink.com 1.10,2013-07-13 00:47:00,
2013-07-12 21:02:00,78.0,75.0,29.90,ESE,118,1.0,5.0,89,0.00,,,0.16,0,weatherlink.com 1.10,2013-07-13 01:02:00,
2013-07-12 21:17:00,78.0,75.0,29.91,ESE,107,0.0,1.0,89,0.00,,,0.16,0,weatherlink.com 1.10,2013-07-13 01:17:00,
2013-07-12 21:47:00,78.2,75.0,29.92,ESE,109,2.0,5.0,89,0.00,,,0.16,0,weatherlink.com 1.10,2013-07-13 01:47:00,
2013-07-12 22:02:00,78.0,75.0,29.92,SE,129,2.0,6.0,89,0.00,,,0.16,0,weatherlink.com 1.10,2013-07-13 02:02:00,
2013-07-12 22:17:00,77.4,74.0,29.93,ESE,113,3.0,5.0,90,0.02,,,0.18,0,weatherlink.com 1.10,2013-07-13 02:17:00,
2013-07-12 22:32:00,76.2,74.0,29.93,SSE,151,0.0,7.0,92,0.02,,,0.18,0,weatherlink.com 1.10,2013-07-13 02:32:00,
2013-07-12 22:47:00,76.4,74.0,29.93,SE,137,2.0,6.0,93,0.03,,,0.19,0,weatherlink.com 1.10,2013-07-13 02:47:00,
2013-07-12 23:02:00,76.2,74.0,29.93,SE,135,1.0,5.0,93,0.03,,,0.19,0,weatherlink.com 1.10,2013-07-13 03:02:00,
2013-07-12 23:32:00,75.7,74.0,29.92,ESE,120,2.0,6.0,93,0.02,,,0.20,0,weatherlink.com 1.10,2013-07-13 03:32:00,
2013-07-12 23:47:00,75.4,73.0,29.92,SE,135,7.0,7.0,93,0.02,,,0.21,0,weatherlink.com 1.10,2013-07-13 03:47:00,